Volver al catálogo

STARLINK-2153

ActivoComunicacionesVLEO
NORAD 48009·PAYLOAD·🇺🇸 United States

Lanzado Mar 24, 2021 desde Cape Canaveral Space Force Station

Loading…

Próximos Pases (próximas 24 horas)

TLE

ActualizadoSource: CelesTrak SupGP

Época: Sep 14, 2026, 21:35 UTC

1 48009C 21024AJ  26257.89979167  .00006132  00000+0  14278-3 0  2571
2 48009  53.1572 146.8360 0001910 143.2589 355.6415 15.41701391    19

Sigue STARLINK-2153 en tiempo real con AllMySat

Download on the App Store